Time,TemperatureF,DewpointF,PressureIn,WindDirection,WindDirectionDegrees,WindSpeedMPH,WindSpeedGustMPH,Humidity,HourlyPrecipIn,Conditions,Clouds,dailyrainin,SoftwareType,DateUTC
2015-02-28 00:01:00,41.9,33.2,30.40,North,5,2.0,6.0,71,0.00,,---,0.00,VWS V13.01,2015-02-28 06:01:00,
2015-02-28 00:06:00,41.8,33.1,30.40,North,11,6.0,9.0,71,0.00,,---,0.00,VWS V13.01,2015-02-28 06:06:00,
2015-02-28 00:11:00,41.8,33.1,30.39,NNE,22,2.0,5.0,71,0.00,,---,0.00,VWS V13.01,2015-02-28 06:11:00,
2015-02-28 00:16:00,41.8,33.1,30.39,NNW,346,0.0,9.0,71,0.00,,---,0.00,VWS V13.01,2015-02-28 06:16:00,
2015-02-28 00:21:00,41.8,32.8,30.40,NNE,12,9.0,9.0,70,0.00,,---,0.00,VWS V13.01,2015-02-28 06:21:00,
2015-02-28 00:26:00,41.8,32.8,30.40,North,9,6.0,12.0,70,0.00,,---,0.00,VWS V13.01,2015-02-28 06:26:00,
2015-02-28 00:31:00,41.8,32.4,30.40,ENE,69,6.0,11.0,69,0.00,,---,0.00,VWS V13.01,2015-02-28 06:31:00,
2015-02-28 00:36:00,41.8,32.4,30.41,North,9,0.0,11.0,69,0.00,,---,0.00,VWS V13.01,2015-02-28 06:36:00,
2015-02-28 00:41:00,41.8,32.4,30.41,NE,46,2.0,4.0,69,0.00,,---,0.00,VWS V13.01,2015-02-28 06:41:00,
2015-02-28 00:46:00,41.7,32.3,30.41,NE,48,0.0,7.0,69,0.00,,---,0.00,VWS V13.01,2015-02-28 06:46:00,
2015-02-28 00:51:00,41.7,32.3,30.41,East,80,2.0,3.0,69,0.00,,---,0.00,VWS V13.01,2015-02-28 06:51:00,
2015-02-28 00:56:00,41.7,32.3,30.41,NNE,23,0.0,5.0,69,0.00,,---,0.00,VWS V13.01,2015-02-28 06:56:00,
2015-02-28 01:01:00,41.6,32.2,30.41,North,9,3.0,6.0,69,0.00,,---,0.00,VWS V13.01,2015-02-28 07:01:00,
2015-02-28 01:06:00,41.6,32.2,30.41,NE,34,0.0,7.0,69,0.00,,---,0.00,VWS V13.01,2015-02-28 07:06:00,
2015-02-28 01:11:00,41.5,31.7,30.41,NNE,18,0.0,0.0,68,0.00,,---,0.00,VWS V13.01,2015-02-28 07:11:00,
2015-02-28 01:16:00,41.5,31.7,30.41,NNE,21,0.0,7.0,68,0.00,,---,0.00,VWS V13.01,2015-02-28 07:16:00,
2015-02-28 01:21:00,41.4,31.6,30.41,NE,55,0.0,3.0,68,0.00,,---,0.00,VWS V13.01,2015-02-28 07:21:00,
2015-02-28 01:26:00,41.4,31.6,30.40,NE,40,0.0,6.0,68,0.00,,---,0.00,VWS V13.01,2015-02-28 07:26:00,
2015-02-28 01:31:00,41.3,31.5,30.40,NE,42,5.0,7.0,68,0.00,,---,0.00,VWS V13.01,2015-02-28 07:31:00,
2015-02-28 01:36:00,41.3,31.5,30.40,NNE,24,4.0,7.0,68,0.00,,---,0.00,VWS V13.01,2015-02-28 07:36:00,
2015-02-28 01:41:00,41.3,31.5,30.40,NE,39,0.0,3.0,68,0.00,,---,0.00,VWS V13.01,2015-02-28 07:41:00,
2015-02-28 01:46:00,41.3,31.5,30.40,NE,43,0.0,6.0,68,0.00,,---,0.00,VWS V13.01,2015-02-28 07:46:00,
2015-02-28 01:51:00,41.3,31.9,30.39,NE,42,0.0,2.0,69,0.00,,---,0.00,VWS V13.01,2015-02-28 07:51:00,
2015-02-28 01:56:00,41.2,31.8,30.40,NE,40,4.0,9.0,69,0.00,,---,0.00,VWS V13.01,2015-02-28 07:56:00,
2015-02-28 02:01:00,41.2,31.8,30.40,NE,44,0.0,1.0,69,0.00,,---,0.00,VWS V13.01,2015-02-28 08:01:00,
2015-02-28 02:06:00,41.2,31.8,30.39,NE,38,0.0,7.0,69,0.00,,---,0.00,VWS V13.01,2015-02-28 08:06:00,
2015-02-28 02:11:00,41.2,31.8,30.39,NE,47,3.0,4.0,69,0.00,,---,0.00,VWS V13.01,2015-02-28 08:11:00,
2015-02-28 02:16:00,41.2,31.8,30.38,NE,49,2.0,7.0,69,0.00,,---,0.00,VWS V13.01,2015-02-28 08:16:00,
2015-02-28 02:21:00,41.2,31.8,30.38,ENE,64,1.0,6.0,69,0.00,,---,0.00,VWS V13.01,2015-02-28 08:21:00,
2015-02-28 02:26:00,41.2,31.8,30.38,East,83,2.0,7.0,69,0.00,,---,0.00,VWS V13.01,2015-02-28 08:26:00,
2015-02-28 02:31:00,41.1,31.7,30.37,ENE,74,2.0,3.0,69,0.00,,---,0.00,VWS V13.01,2015-02-28 08:31:00,
2015-02-28 02:36:00,41.1,32.1,30.37,ENE,63,0.0,7.0,70,0.00,,---,0.00,VWS V13.01,2015-02-28 08:36:00,
2015-02-28 02:41:00,41.1,32.1,30.37,ENE,63,0.0,1.0,70,0.00,,---,0.00,VWS V13.01,2015-02-28 08:41:00,
2015-02-28 02:46:00,41.1,32.1,30.36,NE,40,1.0,5.0,70,0.00,,---,0.00,VWS V13.01,2015-02-28 08:46:00,
2015-02-28 02:51:00,41.0,32.0,30.36,NE,50,0.0,5.0,70,0.00,,---,0.00,VWS V13.01,2015-02-28 08:51:00,
2015-02-28 02:56:00,41.0,32.0,30.37,NE,47,0.0,5.0,70,0.00,,---,0.00,VWS V13.01,2015-02-28 08:56:00,
2015-02-28 03:01:00,40.9,31.9,30.37,ENE,60,0.0,7.0,70,0.00,,---,0.00,VWS V13.01,2015-02-28 09:01:00,
2015-02-28 03:06:00,40.9,31.9,30.37,NNE,21,4.0,7.0,70,0.00,,---,0.00,VWS V13.01,2015-02-28 09:06:00,
2015-02-28 03:11:00,40.8,32.1,30.37,NE,46,2.0,2.0,71,0.00,,---,0.00,VWS V13.01,2015-02-28 09:11:00,
2015-02-28 03:16:00,40.8,32.1,30.38,NNE,33,0.0,3.0,71,0.00,,---,0.00,VWS V13.01,2015-02-28 09:16:00,
2015-02-28 03:21:00,40.7,32.0,30.38,NE,34,0.0,0.0,71,0.00,,---,0.00,VWS V13.01,2015-02-28 09:21:00,
2015-02-28 03:26:00,40.6,32.0,30.39,NE,36,0.0,2.0,71,0.00,,---,0.00,VWS V13.01,2015-02-28 09:26:00,
2015-02-28 03:31:00,40.6,32.0,30.39,NE,36,0.0,0.0,71,0.00,,---,0.00,VWS V13.01,2015-02-28 09:31:00,
2015-02-28 03:36:00,40.6,32.0,30.39,NE,36,0.0,0.0,71,0.00,,---,0.00,VWS V13.01,2015-02-28 09:36:00,
2015-02-28 03:41:00,40.5,31.9,30.39,NE,36,0.0,0.0,71,0.00,,---,0.00,VWS V13.01,2015-02-28 09:41:00,
2015-02-28 03:46:00,40.5,31.9,30.38,NE,36,0.0,1.0,71,0.00,,---,0.00,VWS V13.01,2015-02-28 09:46:00,
2015-02-28 03:51:00,40.5,32.2,30.38,ENE,58,0.0,5.0,72,0.00,,---,0.00,VWS V13.01,2015-02-28 09:51:00,
2015-02-28 03:56:00,40.5,32.2,30.38,NE,45,2.0,7.0,72,0.00,,---,0.00,VWS V13.01,2015-02-28 09:56:00,
2015-02-28 04:01:00,40.6,32.3,30.38,NE,42,0.0,0.0,72,0.00,,---,0.00,VWS V13.01,2015-02-28 10:01:00,
2015-02-28 04:06:00,40.7,32.4,30.38,ENE,63,0.0,4.0,72,0.00,,---,0.00,VWS V13.01,2015-02-28 10:06:00,
2015-02-28 04:11:00,40.7,32.4,30.38,NNE,32,0.0,1.0,72,0.00,,---,0.00,VWS V13.01,2015-02-28 10:11:00,
2015-02-28 04:16:00,40.8,32.5,30.38,NNE,22,0.0,6.0,72,0.00,,---,0.00,VWS V13.01,2015-02-28 10:16:00,
2015-02-28 04:21:00,40.9,32.6,30.38,NNE,19,0.0,2.0,72,0.00,,---,0.00,VWS V13.01,2015-02-28 10:21:00,
2015-02-28 04:26:00,40.9,32.6,30.38,NE,34,4.0,4.0,72,0.00,,---,0.00,VWS V13.01,2015-02-28 10:26:00,
2015-02-28 04:31:00,40.9,32.6,30.38,NE,41,0.0,3.0,72,0.00,,---,0.00,VWS V13.01,2015-02-28 10:31:00,
2015-02-28 04:36:00,40.9,32.6,30.38,NE,38,0.0,4.0,72,0.00,,---,0.00,VWS V13.01,2015-02-28 10:36:00,
2015-02-28 04:41:00,41.0,32.7,30.39,NE,34,0.0,4.0,72,0.00,,---,0.00,VWS V13.01,2015-02-28 10:41:00,
2015-02-28 04:46:00,41.0,32.7,30.39,NNE,14,1.0,6.0,72,0.00,,---,0.00,VWS V13.01,2015-02-28 10:46:00,
2015-02-28 04:51:00,41.1,32.8,30.39,NNE,15,0.0,0.0,72,0.00,,---,0.00,VWS V13.01,2015-02-28 10:51:00,
2015-02-28 04:56:00,41.1,32.8,30.40,NNE,15,0.0,0.0,72,0.00,,---,0.00,VWS V13.01,2015-02-28 10:56:00,
2015-02-28 05:01:00,41.1,33.1,30.40,NNE,17,0.0,0.0,73,0.00,,---,0.00,VWS V13.01,2015-02-28 11:01:00,
2015-02-28 05:06:00,41.1,33.1,30.40,NNE,18,0.0,4.0,73,0.00,,---,0.00,VWS V13.01,2015-02-28 11:06:00,
2015-02-28 05:11:00,41.1,33.1,30.41,NNE,17,0.0,0.0,73,0.00,,---,0.00,VWS V13.01,2015-02-28 11:11:00,
2015-02-28 05:16:00,41.1,33.1,30.40,NNE,17,0.0,1.0,73,0.00,,---,0.00,VWS V13.01,2015-02-28 11:16:00,
2015-02-28 05:21:00,41.1,33.1,30.41,NNE,17,0.0,0.0,73,0.00,,---,0.00,VWS V13.01,2015-02-28 11:21:00,
2015-02-28 05:26:00,41.1,33.1,30.41,NNE,16,0.0,4.0,73,0.00,,---,0.00,VWS V13.01,2015-02-28 11:26:00,
2015-02-28 05:31:00,41.0,33.0,30.41,NNE,15,0.0,0.0,73,0.00,,---,0.00,VWS V13.01,2015-02-28 11:31:00,
2015-02-28 05:36:00,41.0,33.4,30.42,NNE,15,0.0,2.0,74,0.00,,---,0.00,VWS V13.01,2015-02-28 11:36:00,
2015-02-28 05:41:00,40.9,33.3,30.42,NNE,12,0.0,0.0,74,0.00,,---,0.00,VWS V13.01,2015-02-28 11:41:00,
2015-02-28 05:46:00,40.9,33.3,30.42,NNE,19,5.0,6.0,74,0.00,,---,0.00,VWS V13.01,2015-02-28 11:46:00,
2015-02-28 05:51:00,40.9,33.3,30.42,NNE,17,0.0,0.0,74,0.00,,---,0.00,VWS V13.01,2015-02-28 11:51:00,
2015-02-28 05:56:00,40.9,33.3,30.42,North,5,0.0,4.0,74,0.00,,---,0.00,VWS V13.01,2015-02-28 11:56:00,
2015-02-28 06:01:00,40.9,33.6,30.42,NNE,22,0.0,0.0,75,0.00,,---,0.00,VWS V13.01,2015-02-28 12:01:00,
2015-02-28 06:06:00,40.9,33.6,30.42,North,5,0.0,5.0,75,0.00,,---,0.00,VWS V13.01,2015-02-28 12:06:00,
2015-02-28 06:11:00,40.9,33.6,30.42,North,9,0.0,6.0,75,0.00,,---,0.00,VWS V13.01,2015-02-28 12:11:00,
2015-02-28 06:16:00,41.0,33.7,30.42,NNE,30,0.0,7.0,75,0.00,,---,0.00,VWS V13.01,2015-02-28 12:16:00,
2015-02-28 06:21:00,41.0,33.7,30.42,NNE,13,0.0,0.0,75,0.00,,---,0.00,VWS V13.01,2015-02-28 12:21:00,
2015-02-28 06:26:00,41.0,33.7,30.42,North,360,5.0,9.0,75,0.00,,---,0.00,VWS V13.01,2015-02-28 12:26:00,
2015-02-28 06:31:00,41.0,33.7,30.42,NNE,24,7.0,7.0,75,0.00,,---,0.00,VWS V13.01,2015-02-28 12:31:00,
2015-02-28 06:36:00,41.0,33.7,30.42,NNE,30,4.0,10.0,75,0.00,,---,0.00,VWS V13.01,2015-02-28 12:36:00,
2015-02-28 06:41:00,41.0,33.7,30.42,NE,34,2.0,6.0,75,0.00,,---,0.00,VWS V13.01,2015-02-28 12:41:00,
2015-02-28 06:46:00,41.0,33.7,30.43,North,5,0.0,9.0,75,0.00,,---,0.00,VWS V13.01,2015-02-28 12:46:00,
2015-02-28 06:51:00,41.0,33.7,30.43,NNW,337,0.0,4.0,75,0.00,,---,0.00,VWS V13.01,2015-02-28 12:51:00,
2015-02-28 06:56:00,41.0,33.4,30.44,North,10,0.0,11.0,74,0.00,,---,0.00,VWS V13.01,2015-02-28 12:56:00,
2015-02-28 07:01:00,41.0,33.4,30.43,NNE,33,0.0,0.0,74,0.00,,---,0.00,VWS V13.01,2015-02-28 13:01:00,
2015-02-28 07:06:00,41.0,33.4,30.44,NE,40,7.0,10.0,74,0.00,,---,0.00,VWS V13.01,2015-02-28 13:06:00,
2015-02-28 07:11:00,41.0,33.4,30.44,NNW,337,0.0,5.0,74,0.00,,---,0.00,VWS V13.01,2015-02-28 13:11:00,
2015-02-28 07:16:00,41.1,33.5,30.45,NE,38,0.0,10.0,74,0.00,,---,0.00,VWS V13.01,2015-02-28 13:16:00,
2015-02-28 07:21:00,41.1,33.5,30.45,NE,38,6.0,6.0,74,0.00,,---,0.00,VWS V13.01,2015-02-28 13:21:00,
2015-02-28 07:26:00,41.1,33.5,30.45,NNE,28,4.0,10.0,74,0.00,,---,0.00,VWS V13.01,2015-02-28 13:26:00,
2015-02-28 07:31:00,41.1,33.5,30.45,North,5,4.0,5.0,74,0.00,,---,0.00,VWS V13.01,2015-02-28 13:31:00,
2015-02-28 07:36:00,41.4,33.8,30.45,NNE,32,1.0,13.0,74,0.00,,---,0.00,VWS V13.01,2015-02-28 13:36:00,
2015-02-28 07:41:00,41.7,34.0,30.45,NNE,28,10.0,10.0,74,0.00,,---,0.00,VWS V13.01,2015-02-28 13:41:00,
2015-02-28 07:46:00,42.1,34.4,30.46,NNE,26,5.0,11.0,74,0.00,,---,0.00,VWS V13.01,2015-02-28 13:46:00,
2015-02-28 07:51:00,42.6,34.9,30.45,NNE,19,4.0,11.0,74,0.00,,---,0.00,VWS V13.01,2015-02-28 13:51:00,
2015-02-28 07:56:00,43.2,35.1,30.46,ENE,61,9.0,13.0,73,0.00,,---,0.00,VWS V13.01,2015-02-28 13:56:00,
2015-02-28 08:01:00,43.7,35.3,30.46,North,5,7.0,7.0,72,0.00,,---,0.00,VWS V13.01,2015-02-28 14:01:00,
2015-02-28 08:06:00,44.3,35.9,30.45,NE,39,2.0,10.0,72,0.00,,---,0.00,VWS V13.01,2015-02-28 14:06:00,
2015-02-28 08:11:00,44.9,35.7,30.45,NE,36,15.0,17.0,70,0.00,,---,0.00,VWS V13.01,2015-02-28 14:11:00,
2015-02-28 08:16:00,45.3,36.1,30.46,East,101,1.0,17.0,70,0.00,,---,0.00,VWS V13.01,2015-02-28 14:16:00,
2015-02-28 08:21:00,45.8,36.2,30.46,East,98,5.0,7.0,69,0.00,,---,0.00,VWS V13.01,2015-02-28 14:21:00,
2015-02-28 08:26:00,46.1,36.5,30.47,ENE,61,6.0,12.0,69,0.00,,---,0.00,VWS V13.01,2015-02-28 14:26:00,
2015-02-28 08:31:00,46.3,36.7,30.47,ENE,67,10.0,10.0,69,0.00,,---,0.00,VWS V13.01,2015-02-28 14:31:00,
2015-02-28 08:36:00,46.5,36.9,30.47,East,95,2.0,12.0,69,0.00,,---,0.00,VWS V13.01,2015-02-28 14:36:00,
2015-02-28 08:41:00,46.7,37.1,30.47,North,355,6.0,11.0,69,0.00,,---,0.00,VWS V13.01,2015-02-28 14:41:00,
2015-02-28 08:46:00,47.0,37.4,30.46,ENE,63,2.0,12.0,69,0.00,,---,0.00,VWS V13.01,2015-02-28 14:46:00,
2015-02-28 08:51:00,47.5,37.8,30.46,ENE,58,1.0,9.0,69,0.00,,---,0.00,VWS V13.01,2015-02-28 14:51:00,
2015-02-28 08:56:00,47.9,38.2,30.46,East,90,0.0,10.0,69,0.00,,---,0.00,VWS V13.01,2015-02-28 14:56:00,
2015-02-28 09:01:00,48.3,38.2,30.46,NNE,18,7.0,12.0,68,0.00,,---,0.00,VWS V13.01,2015-02-28 15:01:00,
2015-02-28 09:06:00,48.8,38.7,30.46,NNE,17,2.0,14.0,68,0.00,,---,0.00,VWS V13.01,2015-02-28 15:06:00,
2015-02-28 09:11:00,49.4,39.3,30.46,ENE,66,0.0,3.0,68,0.00,,---,0.00,VWS V13.01,2015-02-28 15:11:00,
2015-02-28 09:16:00,49.5,39.0,30.46,NE,39,4.0,13.0,67,0.00,,---,0.00,VWS V13.01,2015-02-28 15:16:00,
2015-02-28 09:21:00,49.6,39.5,30.46,NE,53,12.0,13.0,68,0.00,,---,0.00,VWS V13.01,2015-02-28 15:21:00,
2015-02-28 09:26:00,49.8,39.7,30.46,East,84,0.0,13.0,68,0.00,,---,0.00,VWS V13.01,2015-02-28 15:26:00,
2015-02-28 09:31:00,50.1,40.0,30.46,East,101,0.0,4.0,68,0.00,,---,0.00,VWS V13.01,2015-02-28 15:31:00,
2015-02-28 09:36:00,50.3,39.8,30.46,ENE,69,5.0,10.0,67,0.00,,---,0.00,VWS V13.01,2015-02-28 15:36:00,
2015-02-28 09:41:00,50.4,40.2,30.46,ENE,57,9.0,9.0,68,0.00,,---,0.00,VWS V13.01,2015-02-28 15:41:00,
2015-02-28 09:46:00,50.8,40.6,30.46,ENE,65,6.0,11.0,68,0.00,,---,0.00,VWS V13.01,2015-02-28 15:46:00,
2015-02-28 09:51:00,51.2,41.0,30.46,East,90,5.0,9.0,68,0.00,,---,0.00,VWS V13.01,2015-02-28 15:51:00,
2015-02-28 09:56:00,51.4,41.2,30.46,ENE,71,3.0,10.0,68,0.00,,---,0.00,VWS V13.01,2015-02-28 15:56:00,
2015-02-28 10:01:00,51.7,41.5,30.47,ENE,76,0.0,2.0,68,0.00,,---,0.00,VWS V13.01,2015-02-28 16:01:00,
2015-02-28 10:06:00,52.1,41.9,30.46,ENE,58,1.0,7.0,68,0.00,,---,0.00,VWS V13.01,2015-02-28 16:06:00,
2015-02-28 10:11:00,52.5,41.9,30.46,NNE,30,9.0,9.0,67,0.00,,---,0.00,VWS V13.01,2015-02-28 16:11:00,
2015-02-28 10:16:00,52.6,42.3,30.46,East,83,0.0,9.0,68,0.00,,---,0.00,VWS V13.01,2015-02-28 16:16:00,
2015-02-28 10:21:00,52.7,42.5,30.46,NE,49,3.0,6.0,68,0.00,,---,0.00,VWS V13.01,2015-02-28 16:21:00,
2015-02-28 10:26:00,52.7,42.1,30.46,ESE,102,1.0,7.0,67,0.00,,---,0.00,VWS V13.01,2015-02-28 16:26:00,
2015-02-28 10:31:00,52.6,42.3,30.45,NE,56,1.0,1.0,68,0.00,,---,0.00,VWS V13.01,2015-02-28 16:31:00,
2015-02-28 10:36:00,52.6,42.3,30.45,NE,44,2.0,10.0,68,0.00,,---,0.00,VWS V13.01,2015-02-28 16:36:00,
2015-02-28 10:41:00,52.7,42.5,30.45,East,91,0.0,5.0,68,0.00,,---,0.00,VWS V13.01,2015-02-28 16:41:00,
2015-02-28 10:46:00,52.9,43.0,30.45,ENE,65,0.0,6.0,69,0.00,,---,0.00,VWS V13.01,2015-02-28 16:46:00,
2015-02-28 10:51:00,53.2,43.3,30.45,ESE,103,0.0,0.0,69,0.00,,---,0.00,VWS V13.01,2015-02-28 16:51:00,
2015-02-28 10:55:00,53.4,43.5,30.45,ENE,68,0.0,7.0,69,0.00,,---,0.00,VWS V13.01,2015-02-28 16:55:00,
2015-02-28 11:00:00,53.9,44.0,30.44,ENE,74,2.0,7.0,69,0.00,,---,0.00,VWS V13.01,2015-02-28 17:00:00,
2015-02-28 11:05:00,54.4,44.1,30.44,NE,48,2.0,11.0,68,0.00,,---,0.00,VWS V13.01,2015-02-28 17:05:00,
2015-02-28 11:10:00,54.7,44.4,30.44,NE,49,6.0,6.0,68,0.00,,---,0.00,VWS V13.01,2015-02-28 17:10:00,
2015-02-28 11:15:00,55.0,44.7,30.44,East,96,0.0,10.0,68,0.00,,---,0.00,VWS V13.01,2015-02-28 17:15:00,
2015-02-28 11:20:00,55.5,45.1,30.44,East,98,0.0,0.0,68,0.00,,---,0.00,VWS V13.01,2015-02-28 17:20:00,
2015-02-28 11:25:00,55.9,45.1,30.43,ENE,60,6.0,11.0,67,0.00,,---,0.00,VWS V13.01,2015-02-28 17:25:00,
2015-02-28 11:30:00,56.0,45.2,30.43,NNE,16,6.0,7.0,67,0.00,,---,0.00,VWS V13.01,2015-02-28 17:30:00,
2015-02-28 11:35:00,56.2,45.4,30.43,East,94,2.0,8.0,67,0.00,,---,0.00,VWS V13.01,2015-02-28 17:35:00,
2015-02-28 11:40:00,56.3,45.9,30.43,East,94,5.0,5.0,68,0.00,,---,0.00,VWS V13.01,2015-02-28 17:40:00,
2015-02-28 11:45:00,56.5,46.1,30.43,ENE,67,1.0,10.0,68,0.00,,---,0.00,VWS V13.01,2015-02-28 17:45:00,
2015-02-28 11:50:00,56.6,46.2,30.43,ESE,103,0.0,2.0,68,0.00,,---,0.00,VWS V13.01,2015-02-28 17:50:00,
2015-02-28 11:55:00,56.8,46.8,30.42,ESE,104,5.0,10.0,69,0.00,,---,0.00,VWS V13.01,2015-02-28 17:55:00,
2015-02-28 12:00:00,56.8,47.1,30.42,East,96,0.0,0.0,70,0.00,,---,0.00,VWS V13.01,2015-02-28 18:00:00,
2015-02-28 12:05:00,57.1,47.4,30.42,NE,55,12.0,12.0,70,0.00,,---,0.00,VWS V13.01,2015-02-28 18:05:00,
2015-02-28 12:10:00,57.2,47.5,30.41,East,86,0.0,0.0,70,0.00,,---,0.00,VWS V13.01,2015-02-28 18:10:00,
2015-02-28 12:15:00,57.6,47.9,30.41,NE,53,2.0,13.0,70,0.00,,---,0.00,VWS V13.01,2015-02-28 18:15:00,
2015-02-28 12:20:00,58.0,48.3,30.41,NE,42,3.0,13.0,70,0.00,,---,0.00,VWS V13.01,2015-02-28 18:20:00,
2015-02-28 12:25:00,58.2,48.5,30.41,East,96,5.0,11.0,70,0.00,,---,0.00,VWS V13.01,2015-02-28 18:25:00,
2015-02-28 12:30:00,58.2,48.5,30.41,ENE,75,6.0,6.0,70,0.00,,---,0.00,VWS V13.01,2015-02-28 18:30:00,
2015-02-28 12:35:00,58.0,48.3,30.40,ENE,66,4.0,12.0,70,0.00,,---,0.00,VWS V13.01,2015-02-28 18:35:00,
2015-02-28 12:40:00,58.1,48.8,30.40,East,100,0.0,12.0,71,0.00,,---,0.00,VWS V13.01,2015-02-28 18:40:00,
2015-02-28 12:45:00,58.2,48.8,30.40,ESE,105,0.0,11.0,71,0.00,,---,0.00,VWS V13.01,2015-02-28 18:45:00,
2015-02-28 12:50:00,58.4,49.0,30.40,East,82,1.0,15.0,71,0.00,,---,0.00,VWS V13.01,2015-02-28 18:50:00,
2015-02-28 12:55:00,58.4,49.4,30.40,ESE,117,8.0,11.0,72,0.00,,---,0.00,VWS V13.01,2015-02-28 18:55:00,
2015-02-28 13:00:00,58.5,49.5,30.39,NE,56,10.0,12.0,72,0.00,,---,0.00,VWS V13.01,2015-02-28 19:00:00,
2015-02-28 13:05:00,58.7,49.3,30.39,NE,50,2.0,13.0,71,0.00,,---,0.00,VWS V13.01,2015-02-28 19:05:00,
2015-02-28 13:10:00,58.7,49.7,30.39,East,84,3.0,14.0,72,0.00,,---,0.00,VWS V13.01,2015-02-28 19:10:00,
2015-02-28 13:15:00,58.9,49.5,30.39,ENE,57,4.0,13.0,71,0.00,,---,0.00,VWS V13.01,2015-02-28 19:15:00,
2015-02-28 13:20:00,59.2,50.2,30.39,East,80,9.0,13.0,72,0.00,,---,0.00,VWS V13.01,2015-02-28 19:20:00,
2015-02-28 13:25:00,59.6,50.2,30.39,East,85,0.0,10.0,71,0.00,,---,0.00,VWS V13.01,2015-02-28 19:25:00,
2015-02-28 13:30:00,59.8,50.4,30.39,NE,34,6.0,14.0,71,0.00,,---,0.00,VWS V13.01,2015-02-28 19:30:00,
2015-02-28 13:35:00,59.7,49.9,30.38,ENE,63,5.0,15.0,70,0.00,,---,0.00,VWS V13.01,2015-02-28 19:35:00,
2015-02-28 13:40:00,59.7,50.3,30.38,ESE,111,2.0,15.0,71,0.00,,---,0.00,VWS V13.01,2015-02-28 19:40:00,
2015-02-28 13:45:00,59.6,50.2,30.38,East,83,6.0,11.0,71,0.00,,---,0.00,VWS V13.01,2015-02-28 19:45:00,
2015-02-28 13:50:00,59.5,50.1,30.38,ESE,108,1.0,13.0,71,0.00,,---,0.00,VWS V13.01,2015-02-28 19:50:00,
2015-02-28 13:55:00,59.3,50.3,30.38,East,79,0.0,12.0,72,0.00,,---,0.00,VWS V13.01,2015-02-28 19:55:00,
2015-02-28 14:00:00,59.3,50.3,30.38,East,98,6.0,12.0,72,0.00,,---,0.00,VWS V13.01,2015-02-28 20:00:00,
2015-02-28 14:05:00,59.4,50.4,30.37,ENE,61,3.0,13.0,72,0.00,,---,0.00,VWS V13.01,2015-02-28 20:05:00,
2015-02-28 14:10:00,59.7,51.0,30.38,East,80,6.0,14.0,73,0.00,,---,0.00,VWS V13.01,2015-02-28 20:10:00,
2015-02-28 14:15:00,60.0,51.0,30.37,ENE,66,0.0,12.0,72,0.00,,---,0.00,VWS V13.01,2015-02-28 20:15:00,
2015-02-28 14:20:00,60.2,51.2,30.37,ESE,111,4.0,12.0,72,0.00,,---,0.00,VWS V13.01,2015-02-28 20:20:00,
2015-02-28 14:25:00,60.4,51.7,30.38,ENE,57,0.0,7.0,73,0.00,,---,0.00,VWS V13.01,2015-02-28 20:25:00,
2015-02-28 14:30:00,60.4,51.3,30.38,East,85,0.0,11.0,72,0.00,,---,0.00,VWS V13.01,2015-02-28 20:30:00,
2015-02-28 14:35:00,60.2,51.2,30.38,East,82,0.0,10.0,72,0.00,,---,0.00,VWS V13.01,2015-02-28 20:35:00,
2015-02-28 14:40:00,60.1,51.4,30.38,ENE,61,6.0,12.0,73,0.00,,---,0.00,VWS V13.01,2015-02-28 20:40:00,
2015-02-28 14:45:00,60.0,51.7,30.38,ESE,103,7.0,10.0,74,0.00,,---,0.00,VWS V13.01,2015-02-28 20:45:00,
2015-02-28 14:50:00,59.8,51.5,30.38,ENE,65,10.0,12.0,74,0.00,,---,0.00,VWS V13.01,2015-02-28 20:50:00,
2015-02-28 14:55:00,59.5,51.2,30.38,ESE,106,4.0,12.0,74,0.00,,---,0.00,VWS V13.01,2015-02-28 20:55:00,
2015-02-28 15:00:00,59.2,51.3,30.38,SE,126,3.0,12.0,75,0.00,,---,0.00,VWS V13.01,2015-02-28 21:00:00,
2015-02-28 15:05:00,59.1,51.5,30.38,East,81,3.0,10.0,76,0.00,,---,0.00,VWS V13.01,2015-02-28 21:05:00,
2015-02-28 15:10:00,59.0,51.5,30.38,East,90,0.0,10.0,76,0.00,,---,0.00,VWS V13.01,2015-02-28 21:10:00,
2015-02-28 15:15:00,58.9,51.4,30.38,SE,126,3.0,11.0,76,0.00,,---,0.00,VWS V13.01,2015-02-28 21:15:00,
2015-02-28 15:20:00,58.7,51.2,30.38,ESE,103,1.0,13.0,76,0.00,,---,0.00,VWS V13.01,2015-02-28 21:20:00,
2015-02-28 15:25:00,58.6,51.4,30.37,ESE,117,4.0,12.0,77,0.00,,---,0.00,VWS V13.01,2015-02-28 21:25:00,
2015-02-28 15:30:00,58.5,51.3,30.37,ESE,103,5.0,12.0,77,0.00,,---,0.00,VWS V13.01,2015-02-28 21:30:00,
2015-02-28 15:35:00,58.3,51.1,30.38,East,94,4.0,11.0,77,0.00,,---,0.00,VWS V13.01,2015-02-28 21:35:00,
2015-02-28 15:40:00,58.3,51.1,30.38,NNE,32,15.0,16.0,77,0.00,,---,0.00,VWS V13.01,2015-02-28 21:40:00,
2015-02-28 15:45:00,58.0,50.8,30.38,NE,46,7.0,14.0,77,0.00,,---,0.00,VWS V13.01,2015-02-28 21:45:00,
2015-02-28 15:50:00,57.7,50.9,30.38,ENE,65,4.0,14.0,78,0.00,,---,0.00,VWS V13.01,2015-02-28 21:50:00,
2015-02-28 15:55:00,57.5,51.0,30.39,East,90,0.0,13.0,79,0.00,,---,0.00,VWS V13.01,2015-02-28 21:55:00,
2015-02-28 16:00:00,57.4,51.0,30.38,ESE,103,6.0,13.0,79,0.00,,---,0.00,VWS V13.01,2015-02-28 22:00:00,
2015-02-28 16:05:00,57.4,51.0,30.38,NE,34,0.0,12.0,79,0.00,,---,0.00,VWS V13.01,2015-02-28 22:05:00,
2015-02-28 16:10:00,57.3,50.8,30.38,NE,53,3.0,16.0,79,0.00,,---,0.00,VWS V13.01,2015-02-28 22:10:00,
2015-02-28 16:15:00,57.3,50.8,30.38,NNE,26,6.0,10.0,79,0.00,,---,0.00,VWS V13.01,2015-02-28 22:15:00,
2015-02-28 16:20:00,57.2,50.8,30.38,East,97,7.0,12.0,79,0.00,,---,0.00,VWS V13.01,2015-02-28 22:20:00,
2015-02-28 16:25:00,57.0,50.9,30.38,East,82,1.0,14.0,80,0.00,,---,0.00,VWS V13.01,2015-02-28 22:25:00,
2015-02-28 16:30:00,56.9,50.8,30.38,East,88,5.0,14.0,80,0.00,,---,0.00,VWS V13.01,2015-02-28 22:30:00,
2015-02-28 16:35:00,56.6,50.5,30.38,ENE,57,2.0,10.0,80,0.00,,---,0.00,VWS V13.01,2015-02-28 22:35:00,
2015-02-28 16:40:00,56.4,50.3,30.37,ESE,115,3.0,10.0,80,0.00,,---,0.00,VWS V13.01,2015-02-28 22:40:00,
2015-02-28 16:45:00,56.3,50.5,30.37,ENE,74,3.0,9.0,81,0.00,,---,0.00,VWS V13.01,2015-02-28 22:45:00,
2015-02-28 16:50:00,56.1,50.4,30.38,ENE,66,14.0,14.0,81,0.00,,---,0.00,VWS V13.01,2015-02-28 22:50:00,
2015-02-28 16:55:00,55.9,50.2,30.38,ENE,74,4.0,9.0,81,0.00,,---,0.00,VWS V13.01,2015-02-28 22:55:00,
2015-02-28 17:00:00,55.7,50.0,30.38,East,91,0.0,9.0,81,0.00,,---,0.00,VWS V13.01,2015-02-28 23:00:00,
2015-02-28 17:05:00,55.5,50.1,30.38,ENE,74,10.0,13.0,82,0.00,,---,0.00,VWS V13.01,2015-02-28 23:05:00,
2015-02-28 17:10:00,55.2,49.8,30.38,NE,48,0.0,13.0,82,0.00,,---,0.00,VWS V13.01,2015-02-28 23:10:00,
2015-02-28 17:15:00,55.0,49.6,30.38,ENE,58,0.0,12.0,82,0.00,,---,0.00,VWS V13.01,2015-02-28 23:15:00,
2015-02-28 17:20:00,54.8,49.4,30.38,ENE,71,5.0,14.0,82,0.00,,---,0.00,VWS V13.01,2015-02-28 23:20:00,
2015-02-28 17:25:00,54.5,49.5,30.38,ESE,117,4.0,10.0,83,0.00,,---,0.00,VWS V13.01,2015-02-28 23:25:00,
2015-02-28 17:30:00,54.3,49.3,30.38,East,82,0.0,11.0,83,0.00,,---,0.00,VWS V13.01,2015-02-28 23:30:00,
2015-02-28 17:35:00,54.1,49.1,30.39,ENE,74,0.0,6.0,83,0.00,,---,0.00,VWS V13.01,2015-02-28 23:35:00,
2015-02-28 17:40:00,54.0,49.3,30.39,NE,42,2.0,6.0,84,0.00,,---,0.00,VWS V13.01,2015-02-28 23:40:00,
2015-02-28 17:45:00,53.8,49.1,30.39,NE,42,0.0,10.0,84,0.00,,---,0.00,VWS V13.01,2015-02-28 23:45:00,
2015-02-28 17:50:00,53.6,49.2,30.39,East,82,1.0,10.0,85,0.00,,---,0.00,VWS V13.01,2015-02-28 23:50:00,
2015-02-28 17:55:00,53.2,48.8,30.39,ENE,64,3.0,13.0,85,0.00,,---,0.00,VWS V13.01,2015-02-28 23:55:00,
2015-02-28 18:00:00,53.0,48.9,30.39,ENE,64,0.0,13.0,86,0.00,,---,0.00,VWS V13.01,2015-03-01 00:00:00,
2015-02-28 18:05:00,52.7,49.0,30.39,ENE,68,0.0,10.0,87,0.00,,---,0.00,VWS V13.01,2015-03-01 00:05:00,
2015-02-28 18:10:00,52.4,48.7,30.39,NNE,30,0.0,10.0,87,0.00,,---,0.00,VWS V13.01,2015-03-01 00:10:00,
2015-02-28 18:15:00,52.2,48.8,30.39,ENE,72,0.0,5.0,88,0.00,,---,0.00,VWS V13.01,2015-03-01 00:15:00,
2015-02-28 18:20:00,52.1,48.7,30.40,NE,53,0.0,5.0,88,0.00,,---,0.00,VWS V13.01,2015-03-01 00:20:00,
2015-02-28 18:25:00,51.9,48.8,30.40,NE,51,0.0,13.0,89,0.00,,---,0.00,VWS V13.01,2015-03-01 00:25:00,
2015-02-28 18:30:00,51.7,48.6,30.40,NNE,23,5.0,13.0,89,0.00,,---,0.00,VWS V13.01,2015-03-01 00:30:00,
2015-02-28 18:35:00,51.6,48.5,30.40,ENE,68,3.0,9.0,89,0.00,,---,0.00,VWS V13.01,2015-03-01 00:35:00,
2015-02-28 18:40:00,51.4,48.3,30.40,NE,34,4.0,10.0,89,0.00,,---,0.00,VWS V13.01,2015-03-01 00:40:00,